Location: Ravencliff
(37.6982°N, 81.4812°W)
Time: 19:03:01
(UTC+00:00)

ACS3 Solar Sail - Pass Details

Date: 23 April 2026
Orbit: 894 x 947 km, 97.2° (Epoch: 12 May)

Event Time Altitude Azimuth Distance (km) Brightness Sun altitude
Rises 06:36:32 0° 10° (N) 3,555 5.7 -37.0°
Reaches altitude 10° 06:38:57 10° 10° (N) 2,617 4.8 -36.8°
Enters shadow 06:42:35 41° 6° (N) 1,323 2.8 -36.5°
